Regional Weather Roundup
Issued by NWS

Home | Current Version | Previous Version | Graphics & Text | Print | Product List | Glossary On
Versions: 1 2 3 4 5 6 7 8 9 10 11 12 13 14 15 16 17 18 19 20 21 22 23 24 25 26 27 28 29 30 31 32 33 34 35 36 37 38 39 40 41 42 43 44 45 46 47 48 49 50
000
ASUS43 KBIS 032210
RWRND

NORTH DAKOTA REGIONAL WEATHER ROUNDUP
NATIONAL WEATHER SERVICE BISMARCK ND
400 PM CST TUE MAR 03 2015

NOTE: "FAIR" INDICATES FEW OR NO CLOUDS BELOW 12,000 FEET WITH NO
SIGNIFICANT WEATHER AND/OR OBSTRUCTIONS TO VISIBILITY.


NDZ001>003-009>011-017-032300-
NORTHWEST NORTH DAKOTA

CITY           SKY/WX    TMP DP  RH WIND       PRES   REMARKS
WILLISTON      PTSUNNY    9  -4  55 NW24G31   30.02F WCI -12
MINOT          LGT SNOW   4  -6  63 W26G35    29.97S WCI -19
MINOT AFB      PTSUNNY    4  -3  74 NW29G37   29.96R BLWGSNOWWCI -21
$$

NDZ018>021-031>035-040>046-032300-
SOUTHWEST NORTH DAKOTA

CITY           SKY/WX    TMP DP  RH WIND       PRES   REMARKS
BISMARCK       CLOUDY    11  -2  56 NW17G28   30.01S WCI  -6
DICKINSON      PTSUNNY   15  -4  42 NW25G33   29.93S WCI  -4
GARRISON         N/A      7  -2  66 NW24      29.97S WCI -14
HETTINGER ARPT CLOUDY    15  -5  40 W26G32    29.96S WCI  -4
$$

NDZ004>008-012>016-024-026-027-054-032300-
NORTHEAST NORTH DAKOTA

CITY           SKY/WX    TMP DP  RH WIND       PRES   REMARKS
GRAND FORKS    CLOUDY     9  -2  61 NW21G28   29.91R WCI -11
GRND FRKS AFB  PTSUNNY    9  -6  52 NW23G32   29.90S WCI -12
DEVILS LAKE    PTSUNNY    3  -8  60 NW30G37   29.90R WCI -21
$$

NDZ022-023-025-028>030-036>039-047>053-032300-
SOUTHEAST NORTH DAKOTA

CITY           SKY/WX    TMP DP  RH WIND       PRES   REMARKS
FARGO          FLURRIES  12  -2  53 NW26G32   29.93R WCI  -8
JAMESTOWN      CLOUDY     9  -2  61 NW28G36   29.93R WCI -13
$$



USA.gov is the U.S. government's official web portal to all federal, state and local government web resources and services.